Theta_e
310 310 310 311 310 309 313 318 319 329 327 311 312 308 311 310 313 314 314 316 314 312 313 312 310 310 316 320 317 311 319 315 307 309 315 315 314 312 314 306 303 307 304 303
310 310 310 310 310 309 310 311 316 333 326 306 308 312 311 313 312 312 312 312 314 317 313 310 312 313 321 320 317 318 318 310 301 302 308 316 312 314 314 314 313 305 300 303
309 309 310 310 310 309 312 314 316 324 321 316 313 313 313 309 314 312 313 314 316 314 313 315 312 312 320 321 322 321 320 311 306 301 305 311 309 310 312 312 305 306 304 305
310 310 310 310 309 309 314 318 318 323 316 315 319 315 314 313 312 314 313 313 314 314 311 312 311 314 314 314 318 321 321 311 311 310 312 311 310 310 311 309 310 304 307 307
310 310 310 310 310 309 319 312 311 315 313 319 319 315 314 313 314 315 310 310 314 315 315 314 313 314 311 310 322 319 323 313 313 309 311 311 309 311 312 311 309 310 309 307
309 309 310 310 310 311 316 318 317 314 310 316 314 313 317 316 317 317 316 315 314 314 317 323 322 320 322 322 317 318 318 314 310 304 311 310 305 310 311 311 312 310 306 311
309 309 309 309 309 310 312 317 315 311 308 312 314 317 312 309 313 315 319 321 322 323 327 326 324 322 321 321 320 322 316 314 312 305 309 299 312 318 313 311 311 311 310 310
308 309 309 309 309 311 311 317 315 310 306 310 313 314 316 314 314 322 317 316 324 324 319 318 313 313 316 316 319 320 322 315 308 305 303 308 311 314 312 309 308 314 311 313
307 308 309 309 309 310 312 314 322 313 308 309 312 311 314 317 314 314 316 324 333 330 320 314 307 304 308 307 313 320 319 319 310 306 301 298 311 318 320 317 304 315 316 316
307 307 307 308 308 310 311 311 328 314 306 311 313 309 308 312 316 310 312 315 321 328 316 309 306 306 309 301 306 310 312 312 308 306 304 308 317 318 318 303 308 318 318 317
306 307 307 307 308 310 310 310 319 315 309 310 312 313 312 312 313 311 317 313 314 321 314 310 310 308 311 307 312 310 309 308 306 310 305 301 320 317 310 320 322 320 319 319
306 306 307 307 307 308 310 308 314 316 309 309 316 316 316 315 315 311 322 321 322 323 315 317 315 311 311 311 304 317 308 312 311 312 310 325 323 323 326 325 320 319 319 319
306 306 306 307 307 307 308 307 310 311 309 309 311 310 317 321 320 321 310 320 332 330 328 321 317 311 309 306 310 314 316 317 313 307 316 319 322 323 324 324 321 323 321 325
305 306 306 306 307 307 307 305 309 309 308 303 307 319 317 322 321 322 322 323 328 328 327 322 318 313 321 314 316 310 315 314 313 310 314 317 317 314 322 323 321 321 321 322
305 305 305 306 306 306 307 308 309 311 307 302 304 313 315 317 320 319 323 323 322 313 314 319 317 320 320 319 318 313 320 318 312 309 317 316 313 317 318 318 320 322 322 319
305 305 305 305 306 305 306 307 315 319 316 307 301 313 313 319 322 318 319 319 320 314 315 317 321 328 322 315 311 318 321 324 325 318 321 317 318 320 321 320 322 322 321 320
305 305 305 305 305 304 301 302 311 309 311 308 304 306 314 316 319 321 320 321 319 319 317 318 320 321 323 317 312 319 319 324 322 323 324 320 322 319 322 323 321 319 319 317
305 304 305 305 305 304 302 307 306 307 307 307 302 304 309 322 314 312 321 315 317 319 318 319 318 321 325 312 321 323 324 323 323 324 326 323 324 323 321 320 318 314 313 310
303 304 304 305 304 300 308 313 312 311 306 303 306 300 302 319 316 318 319 321 315 320 315 318 319 319 312 318 323 324 323 323 323 325 324 323 321 318 317 316 315 310 307 306
304 304 303 303 309 307 312 311 306 307 306 305 301 308 304 311 315 314 318 315 315 312 317 320 314 314 326 322 323 323 324 324 325 319 318 319 316 313 312 301 302 303 298 296
306 303 303 308 313 310 307 301 301 303 301 304 304 304 302 309 305 308 315 310 312 308 312 313 312 311 312 316 316 318 318 313 313 309 305 312 311 300 299 296 295 293 294 293
299 300 304 308 306 303 298 299 302 302 300 306 305 306 308 307 310 306 311 307 307 302 315 313 308 307 312 311 311 310 310 307 302 302 298 296 296 296 294 293 292 292 292 293
305 301 299 301 301 293 294 294 298 300 306 309 308 306 309 311 310 307 307 304 305 314 311 306 303 307 308 307 305 302 302 301 299 296 295 294 294 294 293 292 292 292 292 294
297 296 289 296 295 298 299 300 302 307 311 313 314 312 311 310 306 307 302 306 307 302 302 299 301 304 303 302 302 299 295 295 293 291 292 292 292 291 292 293 293 295 295 295
296 297 290 295 300 303 306 309 311 315 319 315 311 311 311 317 311 313 309 305 303 302 297 298 297 297 295 295 295 293 292 291 290 290 290 290 291 292 293 295 296 296 295 294
298 298 296 301 301 302 306 309 309 314 315 312 307 303 301 307 309 305 303 303 296 296 297 297 296 294 294 294 293 292 292 291 291 291 292 292 293 294 294 295 296 295 295 294
295 295 300 301 302 306 309 312 311 314 311 309 310 302 302 310 307 299 296 294 295 296 296 297 296 295 294 294 292 292 292 291 293 294 296 295 296 296 295 294 295 296 296 295
Wind_Speed
26 27 28 28 29 36 12 7 6 8 7 7 9 12 19 18 15 2 11 16 17 8 27 22 16 33 7 4 2 3 9 5 11 19 20 21 15 9 12 9 12 6 10 5
26 27 28 29 26 22 10 8 10 7 9 10 11 16 20 16 9 11 17 13 16 18 11 8 6 10 13 6 5 6 7 4 11 11 13 16 10 10 13 12 5 12 9 5
24 26 28 29 30 21 8 7 4 4 7 11 14 14 15 17 14 16 20 17 15 17 15 11 10 9 9 6 13 9 5 4 9 11 15 15 16 15 13 9 7 11 9 8
25 26 27 30 33 32 5 6 4 3 10 4 13 13 11 15 17 18 18 15 16 17 12 14 15 3 17 28 2 6 3 6 11 14 16 16 16 10 9 9 6 7 8 7
23 25 26 28 32 41 5 7 7 8 15 15 14 11 11 17 20 18 17 19 20 21 15 17 1 18 8 13 12 5 5 7 10 15 18 20 10 2 3 4 3 10 6 4
22 23 24 26 27 26 7 10 13 9 10 11 11 12 12 12 13 24 21 15 17 20 14 18 15 13 13 9 6 8 8 5 8 13 18 16 11 1 2 3 5 8 10 6
21 22 22 23 24 19 8 11 10 9 12 13 11 12 4 15 24 28 10 12 11 10 17 6 7 6 8 9 8 3 5 6 7 11 15 15 5 7 2 5 6 4 3 1
20 21 21 21 23 21 11 11 7 9 10 13 16 19 4 17 31 26 4 9 20 12 5 16 8 8 3 2 7 10 7 4 7 9 10 5 11 7 6 6 6 7 6 5
21 20 20 21 21 22 12 10 7 8 8 3 18 17 15 13 12 15 10 21 2 6 6 10 9 9 12 2 10 7 8 7 6 10 11 11 8 10 9 10 7 9 7 8
19 21 21 21 21 22 14 8 10 8 11 15 15 12 11 12 6 1 8 16 19 7 8 10 10 7 6 4 15 7 11 8 11 12 12 6 9 6 4 7 1 10 10 10
18 20 21 21 21 21 13 11 10 7 10 19 26 17 13 11 8 3 4 4 16 5 6 9 7 3 8 16 11 11 9 8 10 8 11 7 5 5 9 4 7 9 10 8
18 19 20 20 20 20 18 10 12 11 11 18 26 27 24 23 19 9 5 5 5 4 6 6 6 6 5 5 8 4 5 3 4 9 2 4 2 3 5 7 6 6 6 3
17 19 20 20 19 18 14 10 10 11 11 14 15 17 16 15 18 15 8 8 5 4 6 15 5 5 6 9 3 10 3 12 8 9 9 20 13 15 10 9 8 5 6 2
17 18 19 20 19 19 16 9 10 9 8 9 10 11 11 15 9 14 17 15 7 5 7 10 8 10 2 8 3 3 10 7 13 5 7 13 9 15 17 6 6 5 3 6
17 18 19 20 20 21 15 12 10 10 8 10 14 24 29 22 16 15 14 13 11 8 4 6 9 10 6 4 4 6 3 5 5 4 3 4 7 7 22 23 4 6 12 10
17 18 19 20 19 19 10 4 5 6 7 5 7 10 15 15 13 16 17 11 8 8 5 7 9 1 10 13 10 11 9 9 8 2 4 8 9 12 22 16 10 9 7 6
18 19 20 20 17 9 7 7 7 14 9 6 7 7 13 19 12 9 9 11 8 7 9 10 10 8 3 7 14 13 14 6 1 1 2 4 6 8 6 12 12 11 10 9
18 20 22 22 20 18 10 12 21 12 6 6 7 9 11 13 10 11 9 9 9 9 9 8 10 6 2 5 5 12 11 4 6 3 3 4 5 10 11 13 10 9 9 10
20 23 29 10 7 6 2 5 9 8 7 6 6 10 10 3 10 11 10 9 7 6 11 12 8 6 7 7 7 9 3 3 7 2 7 10 10 12 10 11 10 9 10 10
23 12 7 5 4 3 3 4 6 8 7 7 11 13 16 10 8 6 4 5 2 7 11 10 8 11 6 11 10 13 16 9 8 8 8 9 9 9 5 17 13 16 14 12
1 4 3 8 6 5 6 6 8 10 8 9 12 17 17 12 12 4 4 1 5 9 11 10 7 4 9 12 12 13 14 17 17 19 20 14 13 15 15 14 12 11 10 8
7 8 10 6 6 7 7 8 8 10 15 10 13 14 14 8 7 7 8 5 5 10 5 6 3 4 7 11 14 13 15 18 20 20 21 20 19 13 13 11 10 7 5 4
8 5 5 6 7 5 8 10 11 13 12 12 11 11 12 11 9 8 5 7 10 7 6 6 4 6 7 11 12 14 16 17 18 18 17 16 15 13 11 9 6 1 3 7
4 6 6 7 8 9 13 13 13 9 9 10 11 9 8 7 10 5 7 10 8 12 4 7 4 6 10 12 13 13 14 14 15 15 13 12 10 8 3 3 6 9 6 3
6 6 7 11 12 14 12 8 12 8 9 9 6 7 8 0 3 4 6 2 0 8 6 3 7 10 12 12 12 11 10 10 9 8 6 5 2 5 7 8 4 3 5 6
7 8 10 12 13 10 9 10 5 5 8 5 4 1 6 10 8 8 4 6 7 3 3 6 7 10 10 10 9 9 8 7 5 3 3 5 8 4 5 4 4 3 5 6
8 7 12 13 13 10 8 7 7 7 6 4 4 12 13 4 7 6 5 3 3 6 6 6 9 10 9 8 8 8 6 5 4 7 9 2 5 6 6 6 5 6 6 6
Wind_Direction
344 343 342 342 348 343 343 299 277 143 180 209 226 239 243 269 290 143 252 272 281 164 260 186 182 216 180 125 79 354 51 326 301 298 292 277 258 323 349 307 301 256 326 326
344 343 342 341 349 3 317 295 291 188 205 238 234 227 246 258 273 254 259 241 265 276 287 305 304 312 118 120 82 63 9 317 307 304 307 47 348 300 284 311 317 291 273 317
345 344 342 340 338 349 312 274 287 313 205 256 288 287 299 240 239 254 258 255 242 258 263 259 265 262 111 92 92 103 108 261 269 284 297 295 299 315 318 10 322 318 302 324
346 345 344 343 339 336 280 244 29 120 293 298 316 253 284 302 280 231 234 257 253 256 243 250 258 19 41 14 179 166 141 277 295 291 298 304 287 309 359 325 339 293 348 9
347 345 347 347 346 333 228 349 343 330 285 274 289 299 273 273 270 275 224 239 239 246 234 244 141 102 99 206 221 203 186 276 291 295 287 267 308 32 340 312 247 321 145 167
347 347 349 350 355 344 328 355 336 295 298 293 272 267 338 304 328 269 240 222 243 261 268 78 102 136 180 246 268 270 256 278 301 289 296 312 284 61 294 304 351 339 309 61
346 348 349 349 354 359 321 297 321 300 292 289 314 8 82 341 301 288 352 349 318 349 9 67 185 166 173 202 193 177 293 288 294 281 283 278 80 102 107 99 108 92 84 46
344 346 347 346 349 345 326 295 324 313 305 312 297 343 76 215 257 268 131 315 269 130 96 268 234 240 233 293 300 173 171 270 290 288 295 317 125 148 185 205 183 165 146 187
343 344 346 345 343 342 327 303 329 310 290 201 334 319 311 334 9 354 351 237 194 273 264 217 244 258 258 153 191 172 172 188 252 285 278 288 106 175 207 169 227 170 181 191
341 343 345 345 341 340 329 280 306 310 295 271 331 326 334 318 352 312 319 355 336 292 247 246 254 282 105 55 288 182 206 218 226 241 247 233 151 157 176 218 42 173 208 220
338 340 342 342 341 338 338 299 286 301 302 294 282 294 320 331 317 43 106 122 283 235 249 269 265 143 247 190 223 265 247 228 246 248 259 306 163 167 220 96 155 204 211 219
333 336 337 337 338 335 338 289 341 327 292 288 296 284 275 260 260 272 200 268 245 335 1 340 328 317 339 304 271 304 225 281 288 14 8 184 289 260 126 159 201 208 225 187
326 328 330 331 331 332 333 301 304 290 287 287 262 269 261 229 218 221 238 231 317 15 118 278 180 181 97 280 265 248 195 40 35 22 350 351 357 329 305 177 227 188 194 166
317 319 323 325 324 324 320 287 297 290 284 287 289 335 302 313 241 203 208 262 282 316 290 285 292 285 349 310 65 78 305 124 181 225 262 280 346 354 316 304 223 183 82 66
309 314 317 321 323 322 303 271 258 253 263 305 303 307 285 266 254 251 205 213 240 264 262 270 269 278 284 267 301 237 273 63 231 257 359 184 264 243 253 285 146 79 95 88
303 309 312 316 321 327 302 277 131 5 356 283 288 324 287 269 224 220 225 223 214 230 251 258 267 56 46 317 277 279 289 247 226 264 179 187 199 241 241 234 117 139 132 108
302 306 307 305 307 300 272 330 324 324 324 260 267 269 227 224 233 219 225 205 222 224 241 241 270 271 170 270 268 288 286 252 115 184 216 229 164 167 154 96 85 86 98 90
300 300 296 295 294 280 255 238 239 239 265 269 270 270 282 202 217 223 201 209 209 227 241 244 243 250 101 260 278 273 269 352 301 290 152 159 182 120 104 112 118 129 129 96
297 296 293 278 203 232 63 100 117 184 263 293 255 256 278 232 220 235 192 199 203 228 218 240 222 216 221 236 287 307 93 230 287 131 162 133 143 146 151 153 152 129 128 130
295 283 242 210 26 332 183 183 206 197 210 223 260 276 282 287 269 297 63 344 274 202 234 235 201 228 134 54 33 14 5 1 12 136 154 154 131 115 108 87 57 77 88 81
255 276 351 321 321 268 218 236 207 190 214 208 230 231 255 258 266 268 56 66 220 235 223 202 219 182 60 63 59 48 52 51 55 52 50 47 95 105 93 82 79 84 85 78
312 288 277 261 249 221 238 232 216 236 214 240 221 226 216 236 235 259 176 145 133 253 358 345 78 80 71 78 74 65 62 62 57 54 59 61 61 69 88 90 83 73 96 132
279 212 247 236 229 251 236 230 224 217 244 228 228 224 209 198 233 231 243 231 202 221 170 150 70 106 89 90 81 67 57 62 66 63 62 64 68 63 61 71 61 175 213 231
249 233 236 242 213 220 222 246 259 339 346 320 342 294 212 183 201 216 222 234 257 263 256 72 113 84 71 79 78 77 71 69 69 67 65 65 67 71 76 143 219 244 246 297
253 237 240 236 258 284 296 353 330 3 351 359 3 333 322 39 132 341 282 217 298 21 54 48 74 73 77 80 83 82 77 72 69 69 72 81 124 209 201 207 238 336 340 330
243 229 256 282 287 332 357 311 314 16 319 93 112 269 283 234 154 135 0 350 35 56 60 95 94 94 94 93 97 102 98 89 84 91 204 220 237 248 12 335 319 325 315 309
240 236 237 256 283 313 315 320 345 333 296 269 247 188 212 321 53 64 31 38 89 109 90 85 96 103 109 106 102 109 128 153 183 232 231 54 23 6 315 298 340 314 303 300